Regional Weather Roundup
Issued by NWS

Home | Current Version | Previous Version | Text Only | Print | Product List | Glossary Off
Versions: 1 2 3 4 5 6 7 8 9 10 11 12 13 14 15 16 17 18 19 20 21 22 23 24 25 26 27 28 29 30 31 32 33 34 35 36 37 38 39 40 41 42 43 44 45 46 47 48 49

000
ASUS45 KBOU 291407
RWRCO

WEATHER ROUNDUP FOR COLORADO
NATIONAL WEATHER SERVICE DENVER/BOULDER CO
800 AM MDT SAT AUG 29 2015

NOTE: "FAIR" INDICATES FEW OR NO CLOUDS BELOW 12000 FEET WITH NO
SIGNIFICANT WEATHER AND/OR OBSTRUCTIONS TO VISIBILITY.

COZ001>005-013-030-031-291500-
...NORTHWEST COLORADO...

CITY           SKY/WX    TMP DP  RH WIND       PRES   REMARKS
CRAIG          SUNNY     50  45  83 CALM      30.34R
HAYDEN         NOT AVBL
MEEKER         SUNNY     52  43  71 CALM      30.34R
MOUNT WERNER   NOT AVBL
STEAMBOAT SPGS SUNNY     46  41  82 CALM      30.38S
WALDEN         SUNNY     41  36  81 SE3       30.47R
$$

COZ006>008-011-291500-
...WEST CENTRAL VALLEYS...

CITY           SKY/WX    TMP DP  RH WIND       PRES   REMARKS
GRAND JUNCTION SUNNY     62  46  55 S9        30.23R
MONTROSE       SUNNY     58  46  64 S5        30.32R
EAGLE          SUNNY     46  43  87 CALM      30.44R
RIFLE          SUNNY     55  46  71 CALM      30.31R
DELTA          RAIN      62  50  63 CALM      30.28R
NUCLA          SUNNY     59  41  51 SE5       30.35R
$$

COZ017>023-064>068-291500-
...SOUTHWEST COLORADO...

CITY           SKY/WX    TMP DP  RH WIND       PRES   REMARKS
DURANGO        SUNNY     58  46  64 CALM      30.39R
CORTEZ         SUNNY     59  47  64 CALM      30.30R
PAGOSA SPRINGS CLOUDY    56  45  67 CALM      30.47R
TELLURIDE      SUNNY     58  42  54 CALM      30.55R
WOLF CREEK PAS SUNNY     46  37  71 SW6       30.76R
$$

COZ009-010-012-014-032>034-037-058>063-291500-
...CENTRAL COLORADO...

CITY           SKY/WX    TMP DP  RH WIND       PRES   REMARKS
ASPEN          SUNNY     51  43  74 CALM      30.44R
BUENA VISTA    SUNNY     52  40  64 CALM      30.50R
COPPER MTN     SUNNY     52  36  54 S13G18    30.73R
BERTHOUD PASS  FAIR      41  30  65 NW6       30.76S
COTTONWOOD PAS SUNNY     55  39  54 CALM      30.60R
GUNNISON       SUNNY     46  39  76 CALM      30.50S
KREMMLING      SUNNY     43  37  81 CALM      30.49R
LEADVILLE      SUNNY     45  38  76 CALM      30.59R
MONARCH PASS   SUNNY     45  36  70 S13       30.83R
SALIDA         SUNNY     55  43  63 NW5       30.55R
SUNLIGHT       SUNNY     54  37  54 SE3       30.66R
WILKERSON PASS SUNNY     46  36  66 SW5       30.71R
$$

COZ069>075-291500-
...SAN LUIS VALLEY/SANGRE DE CRISTO MOUNTAINS...

CITY           SKY/WX    TMP DP  RH WIND       PRES   REMARKS
ALAMOSA        SUNNY     52  43  71 SE3       30.46R
LA VETA PASS   SUNNY     54  39  58 S3        30.63R
SAGUACHE       SUNNY     52  41  66 NW9       30.48S
$$

COZ035-036-038>040-291500-
...NORTHERN COLORADO FRONT RANGE...

CITY           SKY/WX    TMP DP  RH WIND       PRES   REMARKS
DENVER INTL AP SUNNY     65  42  43 S5        30.27S
DMNS CITY PARK   N/A     65  46  51 S7        30.27S
AURORA         MOSUNNY   64  45  49 S10       30.29S
FRONT RANGE AP SUNNY     61  41  48 S9        30.28S
ERIE MUNI ARPT SUNNY     57  51  79 CALM      30.26S
BOULDER MUN AP SUNNY     63  45  51 CALM      30.27R
CENTENNIAL     MOSUNNY   62  46  55 SE6       30.31R
BROOMFIELD     SUNNY     63  46  55 CALM      30.29R
FORT COLLINS   SUNNY     57  46  67 CALM      30.27R
LONGMONT       SUNNY     60  50  70 CALM      30.27R HAZE
$$

COZ041-046-047-076>085-087-088-291500-
...PIKES PEAK/PALMER DIVIDE AND SOUTHERN FOOTHILLS...

CITY           SKY/WX    TMP DP  RH WIND       PRES   REMARKS
COLO. SPRINGS  SUNNY     62  47  57 NE3       30.36R
A. F. ACADEMY  SUNNY     55  45  68 N6        30.37R
ELLICOTT       SUNNY    N/A N/A N/A SE3       30.34R
FALCON         SUNNY     61  49  66 MISG      30.41R
FORT CARSON    SUNNY     60  46  59 NW7       30.34R
LIMON          SUNNY     57  51  80 CALM      30.31R
MONUMENT HILL  SUNNY     59  41  51 S8        30.40R
TRINIDAD       SUNNY     63  46  54 W12       30.33R
$$

COZ042>045-048>051-090-091-291500-
...NORTHEAST COLORADO...

CITY           SKY/WX    TMP DP  RH WIND       PRES   REMARKS
GREELEY ARPT   SUNNY     55  48  76 CALM      30.26R
AKRON          SUNNY     67  44  43 SW8       30.24R
BURLINGTON     SUNNY     61  55  81 W6        30.24R
WRAY           SUNNY     59  52  76 SW5       30.21R
STERLING       SUNNY     54  50  87 SW7       30.21R
HOLYOKE        SUNNY     61  54  77 W3        30.20R
FORT MORGAN    SUNNY     55  47  73 SW3       30.24S
$$

COZ086-089-092>099-291500-
...SOUTHEAST COLORADO...

CITY           SKY/WX    TMP DP  RH WIND       PRES   REMARKS
PUEBLO         SUNNY     62  48  60 W3        30.27R
LA JUNTA       SUNNY     63  49  60 S3        30.26R
LAMAR          SUNNY     59  56  89 SW5       30.22R FOG
SPRINGFIELD    NOT AVBL
$$



USA.gov is the U.S. government's official web portal to all federal, state and local government web resources and services.